Tracking 29892 objects as of 21-Nov-2024
HD Live streaming from Space Station
objects crossing your sky now

STARLINK-4421

Track STARLINK-4421 now!
10-day predictions
STARLINK-4421 is classified as:


NORAD ID: 53488
Int'l Code: 2022-099Z
Perigee: 568.7 km
Apogee: 571.7 km
Inclination: 97.7 °
Period: 95.9 minutes
Semi major axis: 6941 km
RCS: Unknown
Launch date: August 12, 2022
Source: United States (US)
Launch site: AIR FORCE WESTERN TEST RANGE (AFWTR)
Your satellite tracking list
Your tracking list is empty




NASA's NSSDC Master Catalog

Two Line Element Set (TLE):
1 53488U 22099Z   24325.79970742 -.00000690  00000-0 -49154-4 0  9995
2 53488  97.6532  84.4033 0002185  92.8333 267.3142 15.01253746124880
Source of the keplerian elements: AFSPC